[[{"header":{"parameterUnit":"m.s-1","parameterCategory":1,"la1":30.2991,"la2":30.254,"lo1":-89.0895,"lo2":-89.0444,"dy":0.0017,"dx":0.0017,"nx":28,"ny":28,"refTime":"2023-08-11T03:00:00:Z","depth":0,"parameterNumber":2,"parameterNumberName":"U-component_of_WINDS"},"data":[0,0,0,0,0,0,0,0,0,0,0,0,0,0,0,0,0,0,0,0,0,0,0,0,0,0,0,0,0,0,0,0,0,0,0,0,0,0,0,0,0,0,0,0,0,0,0,0,0,0,0,0,0,0,0,0,0,0,2.6702,2.6705,0,2.693,2.6932,2.6935,2.6919,2.6916,2.6912,2.6909,2.7146,2.7155,2.7164,0,0,0,0,0,0,0,0,0,0,0,0,0,2.6257,2.6265,2.6702,2.6705,2.6708,2.6929,2.6932,2.6935,2.692,2.6916,2.6912,2.6908,2.7142,2.7154,2.7165,0,0,0,0,0,0,0,0,0,0,0,0,0,2.6464,2.6268,2.6702,2.6727,2.6731,2.6929,2.6932,2.6936,2.6921,2.6916,2.6911,2.6906,2.7139,2.7152,2.7166,2.7355,0,0,2.721,2.7216,0,0,0,0,0,0,0,0,2.6452,2.6481,2.672,2.6725,2.6731,2.6891,2.6862,2.7077,2.6922,2.6849,2.6909,2.6903,2.7065,2.7085,2.7139,2.7366,2.7376,2.7211,2.7219,2.7226,2.723,0,0,0,0,0,0,0,2.6438,2.6471,2.6792,2.6724,2.673,2.6727,2.6751,2.6903,2.6983,2.6855,2.6854,2.6881,2.7067,2.7125,2.7144,2.7379,2.7211,2.7223,2.7232,2.7237,2.7774,2.7779,0,0,0,0,0,0,2.6418,2.6459,2.6785,2.6799,2.6576,2.6739,2.6766,2.6845,2.6981,2.6997,2.6885,2.688,2.7104,2.7128,2.7152,2.7383,2.7225,2.7239,2.7247,2.7768,2.7775,2.7781,0,0,0,0,0,0,2.6408,2.6447,2.6776,2.6629,2.667,2.6752,2.6841,2.6852,2.691,2.7004,2.7018,2.693,2.7101,2.7133,2.7305,2.7391,2.7245,2.7258,2.7761,2.777,2.7778,2.7844,0,0,0,0,0,0,2.6396,2.6444,2.6515,2.6631,2.6678,2.6923,2.6846,2.686,2.6934,2.6929,2.705,2.7065,2.7099,2.7284,2.7319,2.7408,2.7269,2.7754,2.7765,2.7775,2.7835,2.7854,2.7871,0,0,0,0,0,2.638,2.6526,2.6519,2.6559,2.677,2.6928,2.6956,2.6991,2.6941,2.7014,2.7075,2.7061,2.7375,2.7301,2.7341,2.7435,2.7748,2.7762,2.7774,2.7827,2.7851,2.787,0,0,0,0,0,0,2.6419,2.6541,2.6535,2.6722,2.6815,2.6925,2.7019,2.7015,2.7125,2.7115,2.7156,2.7183,2.7356,2.7413,2.7328,2.7625,2.7555,2.7577,2.7582,2.7605,2.7623,2.7606,2.7281,0,0,0,0,0,2.645,2.6567,2.6668,2.6823,2.687,2.6937,2.7007,2.7026,2.7124,2.7164,2.7236,2.7333,2.7454,2.7532,2.7648,2.7843,2.7869,2.7927,2.7945,2.7959,2.7978,2.8086,2.8113,2.7824,2.7823,2.7823,0,0,2.6514,2.6595,2.6667,2.6833,2.6907,2.703,2.697,2.7101,2.7193,2.7184,2.7351,2.7408,2.7518,2.7702,2.7787,2.7755,2.8063,2.7976,2.7986,2.7998,2.8102,2.8129,2.8154,2.7832,2.7831,2.7829,0,0,2.6694,2.6766,2.6904,2.698,2.7092,2.7135,2.7168,2.728,2.7317,2.7485,2.7481,2.759,2.7797,2.7876,2.7943,2.8153,2.8145,2.819,2.8284,2.8389,2.8412,2.8432,2.8508,2.8535,2.8208,2.8208,2.8208,0,2.676,2.6943,2.6976,2.7109,2.7183,2.7179,2.732,2.7392,2.7537,2.7588,2.7549,2.7809,2.7883,2.8086,2.8137,2.8191,2.8231,2.8177,2.8405,2.8426,2.8446,2.8519,2.8547,2.8213,2.8212,2.8212,2.8211,0,2.7019,2.7146,2.7244,2.7384,2.7468,2.7604,2.7659,2.7741,2.7753,2.7801,2.7972,2.806,2.8195,2.8244,2.8257,2.845,2.8426,2.8396,2.8327,2.8478,2.8547,2.8575,2.8219,2.8218,2.8216,2.8215,0,0,2.7231,2.7387,2.7423,2.7486,2.761,2.7709,2.7845,2.7976,2.8046,2.8146,2.8262,2.8437,2.841,2.8486,2.8508,2.86,2.8762,2.8559,2.8562,2.8594,2.898,2.9003,2.9035,2.8756,2.8762,2.8766,2.8971,0,2.7425,2.7665,2.7699,2.7913,2.8031,2.8029,2.8148,2.8237,2.8286,2.8394,2.8447,2.8571,2.8525,2.8571,2.8662,2.8722,2.884,2.8708,2.8866,2.8872,2.884,2.9071,2.9095,2.9285,2.8999,2.9003,2.9006,0,2.7683,2.7789,2.8014,2.8122,2.8173,2.8279,2.8401,2.8504,2.8606,2.8634,2.872,2.873,2.8873,2.8796,2.8994,2.8904,2.897,2.901,2.9018,2.9035,2.8949,2.9096,2.9346,2.9375,2.9049,2.9046,2.9043,0,2.7816,2.8016,2.8176,2.823,2.836,2.8435,2.8493,2.8589,2.8665,2.8773,2.8823,2.8945,2.9013,2.9108,2.9152,2.9092,2.9347,2.9275,2.9376,2.9376,2.9431,2.9428,2.9698,2.9472,2.9472,2.9471,2.947,0,2.8029,2.8167,2.8238,2.8337,2.8492,2.853,2.8682,2.8737,2.8823,2.8934,2.8939,2.9043,2.9094,2.9206,2.9241,2.94,2.943,2.9458,2.9466,2.9459,2.9455,2.9504,2.9493,2.9479,2.9477,2.9476,2.9474,0,2.8205,2.8258,2.8433,2.8541,2.8572,2.8681,2.8774,2.8871,2.8917,2.9057,2.9092,2.9166,2.9298,2.9351,2.9513,2.9536,2.972,2.9717,2.9685,2.9688,2.9787,2.9778,3.0099,3.0144,2.9887,2.989,2.9892,0,2.8339,2.8445,2.8564,2.8638,2.8698,2.8817,2.8895,2.8936,2.9017,2.9141,2.9223,2.9354,2.9461,2.9672,2.9741,2.9865,2.9866,2.997,2.9885,2.9874,2.9869,2.9863,2.9874,2.9986,2.9989,2.9991,2.9993,0,2.857,2.8591,2.8702,2.8823,2.8916,2.9013,2.9108,2.9169,2.9225,2.9315,2.945,2.9533,2.9698,2.9829,2.9956,3.0016,3.0015,3.0019,3.0049,3.0043,3.0021,3.0036,2.9729,3.0012,3.001,3.0008,3.0007,3.0006,2.873,2.8824,2.8923,2.9047,2.9123,2.9212,2.9308,2.9366,2.9479,2.9615,2.9633,2.9777,2.9877,3.0048,3.0113,3.0228,3.0201,3.0245,3.0256,3.0266,3.0274,3.0001,3.0251,3.025,3.025,3.025,3.0249,0,2.8963,2.9026,2.914,2.9272,2.937,2.9358,2.9463,2.9546,2.9673,2.9765,2.987,3.0025,3.0152,3.0231,3.0358,3.0435,3.0438,3.0467,3.0463,3.0477,3.029,3.0251,3.0463,3.0463,3.0463,3.0463,3.0463,3.0463,2.9095,2.9255,2.9287,2.9485,2.9547,2.9688,2.9749,2.9831,2.9905,3.0078,3.0183,3.0232,3.032,3.0454,3.0571,3.059,3.0638,3.067,3.0688,3.0512,3.049,3.0469,3.0433,3.068,3.068,3.0866,3.0868,3.0869]},{"header":{"parameterUnit":"m.s-1","parameterCategory":1,"la1":30.2991,"la2":30.254,"lo1":-89.0895,"lo2":-89.0444,"dy":0.0017,"dx":0.0017,"nx":28,"ny":28,"refTime":"2023-08-11T03:00:00:Z","depth":0,"parameterNumber":3,"parameterNumberName":"V-component_of_WINDS"},"data":[0,0,0,0,0,0,0,0,0,0,0,0,0,0,0,0,0,0,0,0,0,0,0,0,0,0,0,0,0,0,0,0,0,0,0,0,0,0,0,0,0,0,0,0,0,0,0,0,0,0,0,0,0,0,0,0,0,0,5.5915,5.5917,0,5.6082,5.6084,5.6085,5.605,5.6047,5.6044,5.6041,5.6202,5.6209,5.6216,0,0,0,0,0,0,0,0,0,0,0,0,0,5.5555,5.5562,5.5915,5.5917,5.5919,5.6081,5.6084,5.6086,5.605,5.6047,5.6043,5.6039,5.6199,5.6208,5.6216,0,0,0,0,0,0,0,0,0,0,0,0,0,5.5716,5.5565,5.5915,5.5921,5.5923,5.6081,5.6084,5.6086,5.6051,5.6046,5.6042,5.6038,5.6196,5.6207,5.6217,5.6376,0,0,5.625,5.6255,0,0,0,0,0,0,0,0,5.5706,5.5729,5.5918,5.5921,5.5924,5.604,5.6016,5.6183,5.6052,5.6002,5.6041,5.6035,5.6151,5.6165,5.6206,5.6383,5.639,5.6251,5.6258,5.6262,5.6265,0,0,0,0,0,0,0,5.5695,5.5721,5.598,5.5921,5.5924,5.5912,5.593,5.6047,5.61,5.6006,5.6004,5.6025,5.6152,5.6196,5.621,5.6392,5.6251,5.626,5.6267,5.6271,5.6705,5.671,0,0,0,0,0,0,5.5683,5.5712,5.5975,5.5986,5.5802,5.5923,5.5942,5.6007,5.6099,5.6109,5.6029,5.6023,5.618,5.6197,5.6215,5.6406,5.6262,5.6272,5.6278,5.67,5.6706,5.6712,0,0,0,0,0,0,5.5676,5.5707,5.5969,5.5849,5.5881,5.5934,5.6007,5.6013,5.6058,5.6116,5.6124,5.6065,5.6177,5.62,5.6336,5.6411,5.6277,5.6287,5.6694,5.6702,5.6709,5.6788,0,0,0,0,0,0,5.5666,5.5705,5.5768,5.585,5.5888,5.609,5.6012,5.602,5.6077,5.6071,5.6152,5.6161,5.6175,5.632,5.6347,5.6423,5.6295,5.6687,5.6697,5.6706,5.6779,5.6797,5.6813,0,0,0,0,0,5.5653,5.5782,5.5771,5.5803,5.5968,5.6095,5.6116,5.6132,5.6084,5.6146,5.6183,5.6158,5.6398,5.6335,5.6364,5.6445,5.6683,5.6695,5.6706,5.6771,5.6794,5.6813,0,0,0,0,0,0,5.5704,5.5793,5.5782,5.5943,5.6012,5.6089,5.6168,5.6156,5.6237,5.6228,5.6241,5.626,5.6398,5.6435,5.6362,5.6601,5.6533,5.6551,5.6573,5.6595,5.6611,5.6599,5.6304,0,0,0,0,0,5.5734,5.5833,5.5904,5.6038,5.6074,5.6115,5.6171,5.6177,5.6248,5.6276,5.6323,5.639,5.648,5.6539,5.6626,5.6784,5.6799,5.6853,5.687,5.6884,5.6899,5.6983,5.7008,5.6749,5.6749,5.6749,0,0,5.5797,5.5858,5.5919,5.605,5.6104,5.6203,5.614,5.6247,5.6319,5.6291,5.6424,5.646,5.6535,5.6683,5.675,5.6718,5.6974,5.6899,5.6909,5.6917,5.6998,5.7022,5.7044,5.6757,5.6756,5.6754,0,0,5.5962,5.6019,5.6137,5.6193,5.6277,5.6304,5.6332,5.6411,5.6435,5.6568,5.655,5.6633,5.6789,5.6843,5.6891,5.7075,5.7055,5.7102,5.7191,5.7273,5.7294,5.7312,5.7376,5.7399,5.7117,5.7117,5.7117,0,5.6028,5.618,5.6198,5.6307,5.6364,5.6347,5.6464,5.6516,5.6623,5.6661,5.6624,5.6818,5.6868,5.7027,5.7072,5.7111,5.7141,5.7093,5.729,5.7308,5.7325,5.7387,5.7411,5.7123,5.7122,5.7121,5.7121,0,5.6256,5.6361,5.6445,5.6553,5.6619,5.6731,5.6763,5.6827,5.6828,5.6857,5.6991,5.705,5.7147,5.7185,5.7186,5.7344,5.7321,5.7287,5.7219,5.7355,5.7413,5.7436,5.713,5.7128,5.7127,5.7125,0,0,5.6458,5.6574,5.6605,5.6653,5.6744,5.6823,5.6933,5.7032,5.7086,5.7159,5.725,5.7381,5.735,5.7404,5.741,5.7482,5.7622,5.7439,5.7441,5.747,5.7798,5.7823,5.785,5.761,5.7614,5.7618,5.7792,0,5.6631,5.683,5.6849,5.7025,5.7121,5.7105,5.72,5.7264,5.7294,5.7376,5.7407,5.75,5.7453,5.7485,5.7556,5.7591,5.7688,5.7578,5.7691,5.7695,5.7673,5.7881,5.7908,5.8069,5.7814,5.7818,5.7821,0,5.686,5.6943,5.713,5.7207,5.7248,5.7334,5.7425,5.7505,5.7575,5.7591,5.7652,5.7648,5.7758,5.7686,5.7835,5.776,5.7806,5.783,5.7837,5.7847,5.7766,5.7896,5.8121,5.8145,5.7857,5.7854,5.7851,0,5.6987,5.7146,5.7278,5.7319,5.7413,5.7473,5.7514,5.7581,5.7638,5.7716,5.7753,5.7841,5.7889,5.7956,5.7974,5.792,5.8122,5.8052,5.8136,5.8136,5.8179,5.8176,5.8415,5.8211,5.821,5.821,5.8209,0,5.7178,5.7293,5.7337,5.7418,5.7545,5.7564,5.7687,5.7724,5.7784,5.7869,5.7859,5.7938,5.7958,5.804,5.8055,5.8175,5.8197,5.8211,5.8213,5.8212,5.821,5.8242,5.8231,5.8216,5.8215,5.8214,5.8213,0,5.7342,5.7377,5.752,5.7597,5.7619,5.7709,5.7772,5.7849,5.7877,5.7985,5.8011,5.8053,5.815,5.8175,5.8289,5.8298,5.844,5.8432,5.8417,5.8417,5.8499,5.8491,5.8766,5.8802,5.8575,5.8578,5.8579,0,5.7462,5.755,5.7637,5.7695,5.774,5.7833,5.7892,5.7912,5.7974,5.806,5.8125,5.8221,5.8299,5.8452,5.8491,5.8577,5.857,5.8661,5.8583,5.8579,5.8571,5.8565,5.8573,5.8675,5.8678,5.868,5.8681,0,5.7669,5.7682,5.777,5.7863,5.7935,5.8008,5.8079,5.8126,5.8155,5.8224,5.8324,5.8384,5.8501,5.8595,5.8682,5.872,5.8705,5.8706,5.873,5.8729,5.8716,5.8723,5.8457,5.8699,5.8697,5.8696,5.8695,5.8694,5.7814,5.7892,5.7965,5.8062,5.8118,5.8184,5.8259,5.8297,5.8382,5.8482,5.8487,5.8595,5.8661,5.8777,5.8819,5.8901,5.8874,5.8908,5.8917,5.8925,5.8932,5.8704,5.8917,5.8917,5.8916,5.8916,5.8915,0,5.8021,5.8068,5.8157,5.8257,5.8333,5.8315,5.8392,5.8455,5.8551,5.8616,5.8693,5.8806,5.8896,5.8942,5.9031,5.9088,5.9083,5.911,5.9106,5.9115,5.8952,5.8923,5.9113,5.9113,5.9113,5.9113,5.9113,5.9113,5.8137,5.8267,5.8288,5.8444,5.8488,5.8597,5.8642,5.8701,5.8753,5.8881,5.8957,5.8988,5.9044,5.9137,5.9218,5.9228,5.9261,5.9292,5.9299,5.9146,5.9126,5.9107,5.9079,5.9299,5.9299,5.9454,5.9455,5.9457]}]]